Content
SEND FEEDBACK

Daily
Averages
Monthly
Summary
Brazil

RIO DE JANEIRO, RIO DE JANEIRO


Home > South America > Brazil > Rio De Janeiro
Elevation: 20 feet     Latitude: 22 49S     Longitude: 043 15W

WEATHER
 
SELECT A DAY
Number of Records: 196,406;   Date Range: 6/30/96 - 10/28/14
 
SHARE

PRINT THIS DATA

[ ← Previous Day ]
WEATHER ALMANAC - APRIL 4, 2013
[ Next Day → ]
[ °C ]   °F
Weather ElementAverageHighLow
Temperature78.8 °F85 °F (3:00 pm)73.4 °F (5:00 am)
Dewpoint71.5 °F77 °F (9:00 am)69.8 °F (12:00 am)
Humidity77.3 %94 % (9:00 am)57 % (3:00 pm)
Barometer29.90 in30.04 in (7:00 am)29.83 in (3:00 pm)
Wind Speed6.2 mph9.2 mph (7:00 pm)
Weather ElementAverage
Visibility7.2 mi
Wind DirectionESE (111.3 °)

Weather ElementTotal
Precipitation---
Cooling Degree Days14.2 (Base 65)
Growing Degree Days29.2 (Base 50)
Averaged from 31 records on April 4, 2013
WEATHER CONDITIONS BREAKOUT
WIND DIRECTION BREAKOUT
WEATHER BY HOUR - APRIL 4, 2013
[ °C ]   °F
Local TimeTemperatureDewpointHumidityBarometerVisibilityWind DirectionWind SpeedGust SpeedPrecipitationEventsConditions
12:00 AM75.2 °F69.8 °F83 %29.98 in6.2 miESE (110°)6.9 mphMostly Cloudy
1:00 AM75.2 °F69.8 °F83 %29.98 in6.2 miEast (100°)5.8 mphMostly Cloudy
2:00 AM75.2 °F71.6 °F89 %29.95 in6.2 miEast (100°)8.1 mphMostly Cloudy
3:00 AM75.0 °F71.0 °F82 %29.95 in11.0 miESE (120°)5.8 mphMist
3:00 AM75.2 °F69.8 °F83 %29.95 in6.2 miESE (120°)5.8 mphMostly Cloudy
4:00 AM75.2 °F69.8 °F83 %29.92 in6.2 miSE (130°)4.6 mphMostly Cloudy
5:00 AM73.4 °F69.8 °F88 %29.92 in6.2 miSSE (150°)4.6 mphMostly Cloudy
6:00 AM73.4 °F69.8 °F88 %29.95 in6.2 miESE (110°)4.6 mphMostly Cloudy
6:00 AM74.0 °F70.0 °F85 %29.95 in12.0 miESE (110°)4.6 mphScattered Clouds
7:00 AM75.2 °F69.8 °F83 %30.04 in3.1 miNW (310°)2.3 mphMostly Cloudy
8:00 AM77.0 °F71.6 °F83 %29.95 in6.2 miESE (120°)5.8 mphMostly Cloudy
9:00 AM78.0 °F71.0 °F74 %29.97 in12.0 miEast (90°)6.9 mphScattered Clouds
9:00 AM78.8 °F77.0 °F94 %29.95 in6.2 miEast (90°)6.9 mphMostly Cloudy
10:00 AM80.6 °F69.8 °F70 %29.95 in6.2 miEast (100°)6.9 mphMostly Cloudy
11:00 AM82.4 °F71.6 °F70 %29.95 in6.2 miSouth (170°)5.8 mphMostly Cloudy
12:00 PM82.4 °F71.6 °F70 %29.89 in6.2 miNE (40°)6.9 mphMostly Cloudy
12:00 PM82.0 °F72.0 °F65 %29.91 in12.0 miNE (40°)6.9 mphScattered Clouds
1:00 PM84.2 °F71.6 °F66 %29.89 in6.2 miEast (100°)4.6 mphScattered Clouds
2:00 PM84.2 °F69.8 °F62 %29.86 in6.2 miEast (90°)8.1 mphScattered Clouds
3:00 PM85.0 °F72.0 °F57 %29.84 in10.0 miSE (130°)5.8 mphHaze
3:00 PM84.2 °F71.6 °F66 %29.83 in6.2 miSE (130°)5.8 mphScattered Clouds
4:00 PM84.2 °F71.6 °F66 %29.83 in6.2 miSE (130°)5.8 mphMostly Cloudy
5:00 PM82.4 °F73.4 °F74 %29.83 in6.2 miESE (110°)5.8 mphMostly Cloudy
6:00 PM80.6 °F73.4 °F79 %29.83 in6.2 miEast (90°)8.1 mphMostly Cloudy
6:00 PM81.0 °F73.0 °F71 %29.84 in10.0 miEast (90°)8.1 mphHaze
7:00 PM80.6 °F73.4 °F79 %29.83 in6.2 miEast (90°)9.2 mphScattered Clouds
8:00 PM78.8 °F73.4 °F83 %29.83 in6.2 miESE (110°)8.1 mphPartly Cloudy
9:00 PM78.0 °F72.0 °F77 %29.85 in12.0 miEast (90°)5.8 mphScattered Clouds
9:00 PM78.8 °F71.6 °F78 %29.83 in6.2 miEast (90°)5.8 mphPartly Cloudy
10:00 PM77.0 °F71.6 °F83 %29.86 in6.2 miSE (130°)5.8 mphPartly Cloudy
11:00 PM77.0 °F71.6 °F83 %29.83 in6.2 miENE (60°)5.8 mphPartly Cloudy
Hourly data recorded from SBGL, located miles away from Rio De Janeiro, Rio De Janeiro







STORIES FROM OUR PARTNERS